EW5191 Weather Reports


Display with metric or nautical units.
time (UTC)temp
F
wind
direction
speed
MPH
gust
MPH
rain 1hr
in
rain 24hr
in
rain mn
in
humidity
%
barometer
mb
20260506131544 31 142 0.0 1.0 0.00 0.00 0.00 73 1022.7
20260506130033 29 129 0.0 0.0 0.00 0.00 0.00 77 1022.5
20260506124529 27 129 0.0 1.0 0.00 0.00 0.00 77 1022.4
20260506121527 25 222 0.0 0.0 0.00 0.00 0.00 79 1022.0
20260506120027 26 222 0.0 2.0 0.00 0.00 0.00 77 1021.9
20260506114520 27 234 0.0 1.0 0.00 0.00 0.00 76 1021.7
20260506111521 29 324 0.0 1.0 0.00 0.00 0.00 75 1021.6
20260506110020 29 121 0.0 3.0 0.00 0.00 0.00 75 1021.8
20260506104516 29 111 0.0 1.0 0.00 0.00 0.00 75 1021.7
20260506101522 29 239 2.0 4.0 0.00 0.00 0.00 74 1021.6
20260506100010 30 254 2.0 5.0 0.00 0.00 0.00 72 1021.4
20260506094520 30 208 1.0 3.0 0.00 0.00 0.00 72 1021.3
20260506093013 30 204 0.0 4.0 0.00 0.00 0.00 69 1021.2
20260506091503 32 256 3.0 5.0 0.00 0.00 0.00 67 1021.1
20260506084621 34 230 3.0 8.0 0.00 0.00 0.00 60 1021.0
20260506083056 34 245 3.0 7.0 0.00 0.00 0.00 58 1020.9
20260506081557 34 275 4.0 8.0 0.00 0.00 0.00 57 1020.9
20260506073050 36 313 2.0 6.0 0.00 0.02 0.00 50 1020.9
20260506071545 37 327 5.0 8.0 0.00 0.02 0.00 49 1020.8
20260506061538 38 316 6.0 12.0 0.00 0.03 0.00 47 1020.4
20260506044550 38 309 3.0 8.0 0.00 0.03 0.03 49 1019.8
20260506043022 38 290 1.0 9.0 0.00 0.03 0.03 60 1019.8
20260506041520 38 275 3.0 8.0 0.00 0.03 0.03 61 1019.7
20260506034537 39 286 3.0 5.0 0.00 0.03 0.03 59 1019.4
20260506033012 40 331 2.0 8.0 0.00 0.03 0.03 45 1019.3
20260506031510 41 332 4.0 7.0 0.00 0.03 0.03 45 1019.0
20260506024509 42 348 5.0 11.0 0.00 0.03 0.03 44 1018.2
20260506023005 43 334 7.0 14.0 0.00 0.03 0.03 44 1017.6
20260506021504 43 341 9.0 14.0 0.00 0.03 0.03 43 1017.4
20260506014601 44 334 13.0 18.0 0.00 0.03 0.03 41 1016.7
20260506014502 44 318 13.0 18.0 0.00 0.03 0.03 41 1016.7
20260506013059 45 329 13.0 19.0 0.00 0.03 0.03 41 1016.6
20260506011617 44 325 13.0 21.0 0.00 0.03 0.03 43 1016.3
20260506004624 43 243 11.0 15.0 0.00 0.03 0.03 59 1015.8
20260506003108 43 286 8.0 12.0 0.00 0.03 0.03 53 1015.8
20260506001556 43 284 7.0 14.0 0.00 0.03 0.03 51 1015.8
20260505234622 44 320 6.0 14.0 0.00 0.03 0.03 50 1015.8
20260505233052 44 306 10.0 24.0 0.00 0.03 0.03 48 1015.5
20260505231650 43 278 11.0 19.0 0.00 0.03 0.03 58 1015.5
20260505224547 44 239 6.0 14.0 0.00 0.03 0.03 51 1014.8
20260505223046 44 287 7.0 12.0 0.00 0.03 0.03 47 1014.6
20260505221546 45 293 15.0 21.0 0.00 0.03 0.03 46 1014.4
20260505214544 47 300 12.0 18.0 0.00 0.03 0.03 41 1014.0
20260505213044 47 307 15.0 22.0 0.00 0.03 0.03 40 1014.0
20260505211548 46 313 4.0 19.0 0.00 0.03 0.03 40 1013.9
20260505204642 47 334 12.0 23.0 0.00 0.03 0.03 38 1013.9
20260505203042 48 324 14.0 29.0 0.00 0.03 0.03 38 1013.9
20260505201541 48 5 7.0 22.0 0.00 0.03 0.03 37 1013.8
20260505194544 49 33 6.0 15.0 0.00 0.03 0.03 38 1013.8
20260505193045 48 337 5.0 14.0 0.00 0.03 0.03 41 1014.0
20260505191551 47 346 7.0 17.0 0.00 0.03 0.03 42 1014.2
20260505184538 47 324 18.0 28.0 0.00 0.03 0.03 43 1014.3
20260505183037 48 331 11.0 21.0 0.00 0.03 0.03 38 1014.2
20260505181537 49 339 13.0 18.0 0.00 0.03 0.03 38 1014.2
20260505174544 47 7 8.0 16.0 0.00 0.03 0.03 37 1014.5
20260505173035 47 324 13.0 22.0 0.00 0.03 0.03 38 1014.6
20260505171535 47 353 10.0 18.0 0.00 0.03 0.03 38 1014.7
20260505164533 46 335 10.0 20.0 0.00 0.03 0.03 40 1014.8
20260505163035 47 336 12.0 20.0 0.00 0.03 0.03 39 1014.8
20260505161531 46 349 10.0 19.0 0.00 0.03 0.03 39 1014.8
20260505153034 45 340 11.0 20.0 0.00 0.03 0.03 45 1014.9
20260505151530 45 351 9.0 19.0 0.00 0.03 0.03 44 1014.8